Orbital Elements at Epoch 2459200.5 (2020-Dec-17.0) TDB
Reference: JPL 31 (heliocentric ecliptic J2000)
Element | Value | Uncertainty (1-sigma) | Units |
e | .1203547457183217 | 3.8346e-08 | |
a | 2.658584297348836 | 1.2855e-08 | au |
q | 2.338611060270694 | 9.9535e-08 | au |
i | 13.93722671778334 | 4.136e-06 | deg |
node | 107.683630272415 | 1.9505e-05 | deg |
peri | 177.1031745951451 | 2.7509e-05 | deg |
M | 134.7299629764524 | 2.0316e-05 | deg |
tp | 2458607.935309297483 (2019-May-04.43530930) | 8.8122e-05 | TDB |
period | 1583.339622012587 4.33 | 1.1484e-05 3.144e-08 | d yr |
n | .2273675179949094 | 1.649e-09 | deg/d |
Q | 2.978557534426979 | 1.4402e-08 | au |
|
| | Orbit Determination Parameters
Additional Information
|